Location: Bushey
(51.6333°N, 0.3667°W)
Time: 13:23:42
(UTC+00:00)

Meteor 1-20 Rocket - Pass Details

Date: 03 March 2021
Orbit: 820 x 891 km, 81.2° (Epoch: 10 April)

Event Time Altitude Azimuth Distance (km) Brightness Sun altitude
Rises 18:08:24 0° 175° (S) 3,340 7.3 -4.4°
Reaches altitude 10° 18:10:49 10° 171° (S) 2,412 6.5 -4.7°
Maximum altitude 18:16:06 53° 95° (E) 1,005 4.3 -5.5°
Drops below altitude 10° 18:21:27 10° 20° (NNE) 2,449 6.4 -6.4°
Sets 18:23:55 0° 16° (NNE) 3,395 7.2 -6.8°
